History for Miami, FL

Sunday, November 4, 2012 — View Current Conditions

Jump to Data:

Date:
Airport Code:
Recently Viewed Airport Codes: KMIA
Daily Summary
  Actual Average Record
Temperature
Mean Temperature 72°F 77°F  
Max Temperature 82°F 83°F 89°F (1988)
Min Temperature 62°F 70°F 50°F (1966)
Degree Days
Heating Degree Days 0 0  
Month to date heating degree days 0 0  
Since 1 July heating degree days 0 0  
Cooling Degree Days 7 12  
Month to date cooling degree days 25 48  
Year to date cooling degree days 4264 4120  
Growing Degree Days 22 (Base 50)    
Moisture
Dew Point 61°F    
Average Humidity 72    
Maximum Humidity 93    
Minimum Humidity 51    
Precipitation
Precipitation 0.00 in 0.14 in 4.96 in (1998)
Month to date precipitation 0.00 0.56  
Year to date precipitation 85.93 57.15  
Snow
Snow 0.00 in in in ()
Month to date snowfall 0.0  
Since 1 July snowfall 0.0  
Since 1 September snowfall 0.0  
Snow Depth 0.00 in    
Sea Level Pressure
Sea Level Pressure 30.07 in    
Wind
Wind Speed 3 mph (East)    
Max Wind Speed 13 mph    
Max Gust Speed 23 mph    
Visibility 10 miles    
Events      
T = Trace of Precipitation, MM = Missing Value Source: NWS Daily Summary

Show full METARS

(help) - Comma Delimited File

Hourly Observations

Time(EST) Temperature Dew Point Humidity Sea Level Pressure Visibility Wind Direction Wind Speed Gust Speed Precipitation Events Conditions
12:53 AM 66.9°F 55.0°F 66% 30.11 in 10.0 miles Calm Calm - N/A   Clear
1:53 AM 68.0°F 57.0°F 68% 30.10 in 10.0 miles NW 3.5 mph - N/A   Clear
1:53 AM 66.9°F 60.1°F 79% 30.09 in 10.0 miles Calm Calm - N/A   Clear
2:53 AM 66.0°F 61.0°F 84% 30.09 in 10.0 miles Calm Calm - N/A   Partly Cloudy
3:53 AM 64.9°F 61.0°F 87% 30.08 in 10.0 miles Calm Calm - N/A   Partly Cloudy
4:53 AM 64.0°F 60.1°F 87% 30.08 in 10.0 miles Calm Calm - N/A   Partly Cloudy
5:53 AM 63.0°F 60.1°F 90% 30.09 in 10.0 miles Calm Calm - N/A   Partly Cloudy
6:53 AM 64.0°F 60.1°F 87% 30.11 in 10.0 miles Calm Calm - N/A   Scattered Clouds
7:53 AM 71.1°F 59.0°F 66% 30.12 in 10.0 miles Calm Calm - N/A   Scattered Clouds
8:53 AM 75.9°F 60.1°F 58% 30.13 in 10.0 miles Calm Calm - N/A   Mostly Cloudy
9:53 AM 78.1°F 62.1°F 58% 30.13 in 10.0 miles Calm Calm - N/A   Mostly Cloudy
10:53 AM 79.0°F 62.1°F 56% 30.11 in 10.0 miles NNE 6.9 mph - N/A   Mostly Cloudy
11:53 AM 80.1°F 60.1°F 50% 30.09 in 10.0 miles East 5.8 mph - N/A   Mostly Cloudy
12:53 PM 81.0°F 61.0°F 50% 30.06 in 10.0 miles ENE 6.9 mph 17.3 mph N/A   Scattered Clouds
1:53 PM 81.0°F 61.0°F 50% 30.04 in 10.0 miles East 8.1 mph - N/A   Scattered Clouds
2:53 PM 81.0°F 60.1°F 49% 30.03 in 10.0 miles ESE 10.4 mph - N/A   Scattered Clouds
3:53 PM 79.0°F 61.0°F 54% 30.03 in 10.0 miles SE 6.9 mph - N/A   Scattered Clouds
4:53 PM 77.0°F 61.0°F 58% 30.03 in 10.0 miles ESE 10.4 mph - N/A   Scattered Clouds
5:53 PM 75.0°F 61.0°F 62% 30.03 in 10.0 miles ESE 9.2 mph - N/A   Scattered Clouds
6:53 PM 73.9°F 61.0°F 64% 30.04 in 10.0 miles ESE 4.6 mph - N/A   Scattered Clouds
7:53 PM 73.9°F 61.0°F 64% 30.04 in 10.0 miles ESE 4.6 mph - N/A   Scattered Clouds
8:53 PM 72.0°F 62.1°F 71% 30.05 in 10.0 miles SE 4.6 mph - N/A   Scattered Clouds
9:53 PM 72.0°F 62.1°F 71% 30.04 in 10.0 miles Calm Calm - N/A   Mostly Cloudy
10:53 PM 72.0°F 62.1°F 71% 30.05 in 10.0 miles Calm Calm - N/A   Mostly Cloudy